RH
100 100 100 100 100 99 82 64 59 47 60 78 95 100 100 100 100 100 100 89 71 63 87 57 80 100 100 44 76 88 100 77 57 54 48 39 33 31 38 70 86 91 92 98
100 100 100 100 100 100 100 100 100 100 100 100 100 100 100 100 100 100 100 100 100 78 65 85 63 60 100 83 46 86 94 100 100 94 74 68 52 38 37 36 50 68 75 87
79 80 77 73 89 100 84 79 96 100 100 100 100 100 100 100 100 100 100 100 100 66 60 75 97 82 72 100 68 52 95 85 99 98 91 100 94 74 46 40 43 38 45 50
74 77 66 78 90 91 87 91 81 73 68 83 100 100 100 100 98 99 100 100 100 85 72 100 100 100 92 90 68 94 73 94 98 100 100 96 82 94 99 66 47 54 52 53
84 66 66 68 69 80 71 72 71 62 56 72 65 84 100 96 67 88 90 87 100 92 80 58 90 100 100 71 67 67 95 71 100 99 100 100 100 100 94 100 100 70 61 69
82 77 78 99 91 90 100 100 95 90 75 59 59 62 67 72 71 76 73 73 84 95 79 100 100 100 100 100 78 86 100 76 62 94 89 100 100 100 100 100 99 99 92 76
94 96 96 81 72 74 83 86 88 87 86 85 84 78 77 76 72 83 94 100 100 100 88 100 100 100 100 100 98 100 100 100 61 71 83 100 91 96 100 100 100 100 100 100
93 90 93 84 82 79 81 86 87 90 84 77 73 78 84 95 94 99 100 100 100 100 100 100 100 100 100 98 95 100 100 100 94 99 86 76 84 95 100 100 100 100 100 100
49 44 45 45 46 55 74 85 88 94 93 92 95 88 73 79 98 100 98 94 97 100 91 91 100 100 100 100 100 100 100 100 100 100 100 100 100 94 76 94 100 100 100 100
35 35 34 30 32 33 33 36 38 40 40 37 36 35 36 34 40 54 76 95 94 85 91 90 100 98 100 100 100 100 100 100 100 100 100 100 100 100 100 100 86 96 100 100
28 27 25 23 26 25 25 27 29 29 29 28 28 29 30 30 30 35 40 46 66 83 81 89 94 90 95 99 100 100 100 100 100 100 100 100 100 100 100 100 100 100 100 100
28 25 22 19 19 20 18 20 22 22 22 21 21 24 26 26 27 28 29 36 44 53 66 82 79 75 83 93 97 100 100 100 100 100 100 100 100 100 100 94 88 95 100 100
22 22 19 16 13 15 15 16 18 20 19 18 19 19 21 21 22 25 23 29 36 43 51 58 62 80 84 81 86 96 99 96 96 100 100 100 100 100 100 100 100 100 100 100
27 26 24 22 20 17 16 17 18 19 20 18 17 16 16 16 18 20 24 24 29 36 43 46 50 63 72 76 94 97 98 100 94 93 100 100 99 96 100 100 93 100 100 100
33 37 37 31 28 26 21 18 17 16 18 20 19 17 19 16 15 15 15 17 22 30 37 40 45 56 66 79 79 98 100 100 92 91 100 100 96 100 86 94 100 100 95 99
35 34 36 30 28 24 20 19 17 16 15 16 18 20 20 16 15 16 17 16 15 21 28 34 44 47 56 63 62 69 78 95 100 100 100 100 100 100 100 100 80 86 95 87
44 37 31 27 29 25 17 12 12 17 18 18 24 30 26 18 19 23 18 19 17 17 20 23 29 37 42 51 52 54 56 65 72 78 84 98 100 100 100 100 99 88 80 79
29 22 16 14 12 11 13 14 14 16 17 15 17 18 19 16 19 25 21 18 20 22 24 24 25 30 34 35 37 38 48 55 60 73 78 72 77 91 96 91 86 89 92 95
14 10 10 10 10 9 9 10 10 10 10 12 14 14 14 15 18 21 23 22 19 21 28 35 36 40 42 36 46 51 48 46 49 55 58 61 62 57 78 81 82 83 86 83
9 8 8 8 8 8 8 9 9 10 12 13 13 13 14 14 15 15 18 21 23 21 22 25 28 34 45 49 52 54 49 49 45 41 50 62 72 72 67 74 88 90 84 86
7 8 8 8 8 8 9 10 10 11 12 13 13 13 14 15 16 17 18 20 21 24 24 24 23 24 26 29 29 29 32 36 35 38 40 50 54 57 58 63 61 62 61 56
10 10 10 10 10 10 10 10 12 13 14 15 16 15 16 15 16 17 18 19 22 23 23 24 26 26 27 26 27 26 24 25 29 34 38 36 40 44 44 43 42 37 36 35
13 12 13 13 14 14 13 14 14 15 16 17 17 18 19 20 21 21 23 24 24 24 22 23 24 24 25 26 26 24 25 25 25 26 25 25 25 25 24 25 28 30 31 26
17 17 16 17 17 18 18 18 18 16 15 16 17 18 19 21 21 21 20 18 17 16 15 14 14 15 15 15 17 18 19 19 19 20 23 24 23 20 17 15 15 14 14 13
24 23 22 22 22 21 20 20 20 19 18 18 18 19 19 18 17 16 15 15 14 13 12 12 12 12 11 11 12 12 13 13 13 12 11 10 10 10 10 10 10 10 10 9
24 21 20 19 18 18 18 17 15 15 14 13 13 14 14 14 13 12 12 12 11 11 11 11 11 11 11 10 10 10 10 10 9 9 9 9 9 9 8 8 8 8 8 8
30 31 31 31 30 28 27 26 26 24 22 21 20 18 16 15 14 13 12 12 11 11 10 10 10 10 9 9 9 9 9 8 8 8 9 8 8 7 6 6 5 5 5 4
Wind_Speed
64 59 58 55 51 48 50 57 53 54 51 53 54 56 61 61 59 56 54 51 49 44 44 40 40 43 42 36 33 31 30 28 27 27 24 23 24 23 29 36 43 43 42 45
76 73 70 69 66 66 64 62 59 59 60 61 58 59 61 62 59 57 53 56 55 47 46 46 43 43 45 41 36 34 34 35 32 32 31 30 28 27 23 25 34 36 39 40
81 83 77 69 73 76 76 76 76 73 67 66 64 63 63 62 59 60 60 61 62 56 50 51 50 50 46 45 42 39 38 38 38 38 37 38 37 34 33 30 26 24 28 31
86 86 83 79 78 79 79 81 81 81 78 75 75 74 73 71 69 65 66 63 66 61 50 55 58 56 55 49 47 44 45 43 41 39 42 40 40 42 42 38 37 35 34 34
89 87 83 84 84 84 86 89 88 87 82 81 80 79 80 80 77 75 70 66 64 63 51 51 59 60 57 56 52 48 50 50 46 40 41 44 45 46 49 49 45 45 44 43
96 93 90 85 89 88 87 89 86 84 84 83 84 88 86 83 79 78 73 68 62 60 57 58 60 59 59 60 56 57 56 55 51 49 47 48 48 48 50 52 51 51 50 50
91 92 91 92 99 95 92 96 94 94 94 93 92 90 87 86 81 76 72 70 66 65 60 61 63 65 66 65 59 62 58 58 57 53 53 52 50 51 52 56 55 56 56 56
86 87 89 91 91 93 96 97 98 98 98 95 92 92 91 90 87 82 79 78 75 71 71 69 71 67 66 65 64 62 62 62 64 62 59 56 54 51 53 57 62 63 63 64
76 78 79 80 81 84 89 93 95 98 98 97 95 93 88 85 86 87 86 84 81 76 75 75 74 71 69 68 67 67 67 67 68 67 64 63 64 63 60 59 64 66 67 70
72 74 74 73 73 76 78 80 82 83 84 83 82 82 82 80 77 79 82 81 79 77 74 74 77 77 74 72 72 72 71 71 71 71 70 68 69 69 69 69 68 68 70 74
68 71 71 69 70 72 73 75 76 76 76 77 78 78 77 76 73 74 77 78 79 80 79 79 82 80 79 77 75 74 74 75 74 75 75 74 75 76 74 74 74 74 75 77
65 66 67 66 66 69 69 70 72 73 73 73 73 75 75 75 73 72 73 74 78 80 80 81 81 77 78 81 82 82 80 79 78 78 77 75 75 78 81 81 81 81 80 81
61 64 64 64 63 63 63 65 68 70 71 71 71 72 74 73 71 73 70 70 73 75 78 82 82 79 77 80 81 84 86 87 87 86 84 80 80 82 83 86 88 87 86 88
60 61 62 62 63 64 63 64 66 67 68 70 70 69 68 69 70 70 72 70 71 74 76 77 79 79 81 80 82 82 83 86 92 90 89 89 88 86 88 97 92 91 93 94
56 56 57 59 59 62 60 60 60 61 63 66 68 68 66 67 68 67 66 68 70 72 77 77 77 75 78 81 84 85 90 82 91 81 84 85 89 94 95 99 102 99 98 100
56 55 55 55 57 59 60 61 60 59 57 56 57 59 61 63 60 60 64 67 68 70 75 74 77 78 79 80 83 83 85 88 92 93 90 86 83 93 99 97 106 105 108 108
52 52 53 55 58 59 57 53 50 49 49 47 49 54 58 59 53 59 61 64 64 66 67 70 76 82 83 85 86 84 86 87 89 90 91 93 97 102 105 109 111 113 113 114
55 56 55 54 52 50 46 44 46 48 50 50 53 55 57 54 50 56 60 62 62 62 64 68 72 75 76 80 85 86 86 86 90 90 92 94 97 101 104 106 107 107 109 111
54 50 46 45 46 46 44 47 50 49 48 49 52 55 54 52 51 53 57 60 62 62 63 66 69 72 76 76 79 80 82 83 85 87 88 94 99 101 103 105 105 106 109 111
47 46 45 43 43 42 43 45 46 45 46 48 51 50 48 50 52 53 55 56 59 61 63 65 67 70 74 80 79 81 83 86 90 88 90 95 97 99 103 106 109 110 111 112
33 34 34 35 36 36 38 40 41 43 45 47 48 49 50 52 54 55 55 55 55 57 60 64 66 68 72 75 77 78 82 86 90 91 93 96 99 101 104 105 109 113 116 117
25 26 26 28 30 33 35 36 37 39 42 44 46 48 49 51 51 51 52 53 55 58 60 63 66 68 70 73 76 77 79 83 88 90 92 95 98 101 105 107 111 111 112 113
28 30 30 31 31 32 33 36 38 40 42 44 45 47 48 50 51 52 53 56 59 61 62 63 65 67 70 72 75 77 78 79 82 83 86 90 95 98 100 100 100 102 103 103
32 33 34 35 36 38 39 40 42 43 44 46 47 49 50 52 54 55 57 58 59 61 62 62 64 66 67 68 69 72 74 75 75 77 80 83 86 88 88 88 90 92 93 94
36 37 38 39 40 41 42 43 44 46 47 48 50 51 52 53 53 53 54 56 57 59 60 61 63 64 66 66 67 68 70 71 73 75 76 78 79 82 83 85 87 88 89 90
34 35 36 37 38 40 41 43 44 45 46 47 48 49 50 51 51 52 52 53 55 56 57 58 60 62 63 65 66 67 68 70 71 73 74 76 78 80 82 83 83 84 84 84
37 39 41 43 44 45 47 48 50 51 53 54 55 55 56 56 57 57 57 58 59 60 61 62 63 64 65 66 67 68 69 70 71 72 73 74 75 76 76 76 77 78 78 78
Wind_Direction
226 228 228 231 237 244 245 246 246 246 247 250 251 256 260 265 267 268 270 273 278 274 267 271 268 276 278 280 286 283 276 276 284 288 293 298 299 289 266 258 258 258 259 259
229 230 229 228 230 233 233 234 238 244 246 246 249 254 258 261 262 265 268 269 272 270 269 267 263 267 273 274 276 282 278 279 279 282 286 288 291 293 291 273 254 252 254 257
233 236 237 236 234 235 237 240 243 244 245 246 246 249 253 255 258 263 265 269 268 273 274 267 264 263 267 271 273 274 277 275 279 281 279 283 287 288 293 290 287 274 266 266
235 237 239 240 241 243 243 244 243 245 244 246 249 254 258 260 264 263 265 265 266 272 267 259 265 266 266 267 267 272 275 278 273 274 279 280 284 289 285 284 286 284 281 280
240 241 242 242 243 246 248 250 250 251 248 247 249 252 256 264 266 265 269 265 261 266 264 258 257 260 265 266 266 268 271 274 274 273 277 279 278 281 284 285 281 282 281 282
240 243 241 239 243 242 245 248 249 252 253 254 255 258 259 260 264 264 268 264 267 263 258 257 261 260 265 267 265 267 270 270 271 272 274 278 279 278 280 278 278 279 279 280
241 243 244 244 245 248 249 250 253 256 256 257 259 260 261 263 263 263 262 260 262 259 255 254 260 259 262 264 265 266 270 270 270 273 272 273 272 275 276 275 275 277 276 276
243 245 246 246 248 248 250 252 253 255 257 257 257 258 259 261 260 259 258 257 259 256 253 251 252 254 257 259 261 266 267 268 270 273 274 274 269 272 274 274 274 275 277 275
246 247 247 246 247 248 249 250 251 253 255 256 258 258 257 256 256 257 256 255 256 254 254 250 250 250 253 256 260 263 266 269 271 274 274 275 275 272 272 273 269 269 273 276
247 247 247 247 248 249 249 250 251 252 254 255 254 255 256 256 254 252 252 252 253 251 250 247 250 251 250 252 255 258 261 263 267 269 271 271 273 274 273 273 275 276 274 277
245 247 248 248 248 249 250 251 252 253 253 254 255 255 254 254 254 252 251 250 249 250 249 246 247 249 249 248 250 254 257 259 261 264 266 268 270 270 271 272 273 274 275 275
246 247 249 249 248 250 250 251 254 255 254 253 253 254 255 254 253 252 251 249 249 248 249 248 250 249 249 250 251 252 253 256 259 262 264 265 268 273 276 275 274 273 274 275
245 246 247 250 250 250 251 251 252 254 256 256 254 253 254 254 253 252 252 250 249 250 250 250 250 250 250 251 253 255 256 257 258 259 261 263 264 265 268 270 271 273 276 276
244 246 248 248 251 251 248 248 249 252 254 255 256 254 253 253 253 250 250 249 248 248 250 251 251 251 252 253 252 256 257 259 260 259 263 264 265 266 269 271 271 273 273 274
244 245 247 248 250 253 254 253 250 248 248 251 254 256 257 254 253 253 252 251 248 247 248 250 252 252 252 251 252 251 255 255 261 263 262 267 268 270 269 266 268 269 271 272
245 247 249 251 252 253 254 255 255 255 256 255 256 257 258 259 257 256 254 252 250 248 248 248 249 250 251 252 253 254 255 255 257 259 259 258 259 259 261 269 271 272 274 273
255 253 251 250 250 253 257 260 261 264 261 257 253 253 254 257 254 254 253 253 252 251 251 249 248 248 249 251 254 255 256 256 257 258 259 258 258 262 263 266 269 272 273 273
254 257 259 260 264 265 264 262 257 255 256 252 251 253 257 261 257 255 255 254 254 250 250 251 253 254 253 252 255 255 253 254 255 256 258 259 259 261 265 267 269 270 271 274
256 259 261 261 259 260 261 257 257 258 258 256 255 256 259 258 256 256 256 256 256 253 251 253 254 256 258 258 258 256 257 259 259 258 259 262 263 264 263 265 267 269 270 272
255 256 256 257 258 259 260 261 259 257 254 254 256 258 258 258 258 257 257 257 256 255 255 256 256 254 255 255 258 260 262 262 262 262 264 264 264 264 264 265 266 268 271 273
249 249 250 249 250 251 252 254 254 255 254 254 256 257 257 258 260 260 260 261 260 260 261 262 262 261 261 261 261 263 264 264 264 264 264 263 264 266 267 268 268 270 272 273
254 254 254 254 252 250 248 246 248 251 252 252 255 256 257 258 259 260 261 262 262 263 263 263 263 264 264 264 265 265 264 263 263 264 264 264 265 266 267 269 270 273 275 277
264 263 262 262 261 259 257 256 256 255 255 256 257 259 261 263 263 264 265 264 263 263 262 261 262 262 263 264 265 266 267 267 267 268 269 269 270 270 272 274 275 276 277 279
264 265 264 264 264 265 265 264 264 265 266 267 267 267 267 267 267 267 267 267 267 267 267 267 266 266 265 265 266 267 268 269 270 270 271 271 271 273 276 277 277 278 278 280
267 267 268 269 270 270 270 269 269 270 270 270 270 270 270 271 271 271 271 272 272 272 272 272 271 270 270 270 269 269 269 270 271 271 272 273 274 275 277 279 280 281 282 284
281 280 279 278 278 279 278 278 277 276 276 276 275 275 274 274 273 273 272 271 271 271 271 271 271 271 271 272 272 272 273 274 274 275 276 277 278 279 280 282 283 285 286 287
273 271 270 270 269 269 269 269 269 270 270 271 272 272 272 273 273 274 274 274 274 275 275 275 275 275 275 275 276 277 278 279 280 280 281 282 283 284 285 286 287 288 288 289